Météo par heure à Abaran

Ce jour, 30 Novembre, Lundi

Heure Température Précipitation Vent Pression Humidité
00:00 +9°C° 0 mm 0 m/s 730 mmHg 86%
01:00 +8°C° 0 mm 0 m/s 730 mmHg 86%
02:00 +8°C° 0 mm 0 m/s 730 mmHg 86%
03:00 +8°C° 0 mm 0 m/s 730 mmHg 87%
04:00 +8°C° 0 mm 0 m/s 730 mmHg 87%
05:00 +8°C° 0 mm 0 m/s 730 mmHg 87%
06:00 +7°C° 0 mm 0 m/s 730 mmHg 87%
07:00 +9°C° 0 mm 0 m/s 731 mmHg 81%
08:00 +11°C° 0 mm 0 m/s 731 mmHg 75%
09:00 +13°C° 0 mm 1 m/s 732 mmHg 69%
10:00 +14°C° 0 mm 1 m/s 732 mmHg 66%
11:00 +15°C° 0 mm 1 m/s 732 mmHg 64%
12:00 +16°C° 0 mm 2 m/s 732 mmHg 61%
13:00 +16°C° 0 mm 2 m/s 731 mmHg 62%
14:00 +16°C° 0 mm 2 m/s 731 mmHg 63%
15:00 +17°C° 0 mm 2 m/s 731 mmHg 65%
16:00 +15°C° 0 mm 2 m/s 731 mmHg 72%
17:00 +14°C° 0 mm 2 m/s 731 mmHg 80%
18:00 +13°C° 0 mm 1 m/s 731 mmHg 87%
19:00 +12°C° 0 mm 1 m/s 731 mmHg 89%
20:00 +12°C° 0 mm 1 m/s 732 mmHg 90%
21:00 +10°C° 0 mm 0 m/s 732 mmHg 92%
22:00 +11°C° 0 mm 1 m/s 732 mmHg 91%
23:00 +11°C° 0 mm 1 m/s 732 mmHg 91%

Demain, 1 Décembre, Mardi

Heure Température Précipitation Vent Pression Humidité
00:00 +11°C° 0 mm 1 m/s 732 mmHg 90%
01:00 +11°C° 0 mm 1 m/s 732 mmHg 90%
02:00 +11°C° 0 mm 1 m/s 731 mmHg 90%
03:00 +10°C° 0 mm 0 m/s 731 mmHg 90%
04:00 +9°C° 0 mm 0 m/s 731 mmHg 90%
05:00 +9°C° 0 mm 0 m/s 731 mmHg 91%
06:00 +9°C° 0 mm 0 m/s 731 mmHg 91%
07:00 +11°C° 0 mm 1 m/s 731 mmHg 86%
08:00 +12°C° 0 mm 1 m/s 731 mmHg 81%
09:00 +13°C° 0 mm 1 m/s 731 mmHg 76%
10:00 +14°C° 0 mm 1 m/s 731 mmHg 71%
11:00 +15°C° 0 mm 1 m/s 731 mmHg 66%
12:00 +16°C° 0 mm 1 m/s 730 mmHg 61%
13:00 +18°C° 0 mm 1 m/s 730 mmHg 58%
14:00 +18°C° 0 mm 1 m/s 730 mmHg 54%
15:00 +19°C° 0 mm 1 m/s 729 mmHg 50%
16:00 +16°C° 0 mm 1 m/s 729 mmHg 57%
17:00 +15°C° 0 mm 1 m/s 729 mmHg 64%
18:00 +13°C° 0 mm 1 m/s 729 mmHg 70%
19:00 +13°C° 0 mm 1 m/s 729 mmHg 70%
20:00 +12°C° 0 mm 2 m/s 729 mmHg 69%
21:00 +12°C° 0 mm 2 m/s 728 mmHg 68%
22:00 +10°C° 0 mm 2 m/s 728 mmHg 64%
23:00 +10°C° 0 mm 2 m/s 728 mmHg 60%

Après-demain, 2 Décembre, Mercredi

Heure Température Précipitation Vent Pression Humidité
00:00 +10°C° 0 mm 3 m/s 728 mmHg 56%
01:00 +9°C° 0 mm 3 m/s 727 mmHg 56%
02:00 +9°C° 0 mm 3 m/s 727 mmHg 56%
03:00 +8°C° 0 mm 4 m/s 726 mmHg 56%
04:00 +8°C° 0 mm 4 m/s 726 mmHg 56%
05:00 +8°C° 0 mm 4 m/s 726 mmHg 56%
06:00 +8°C° 0 mm 4 m/s 726 mmHg 56%
07:00 +10°C° 0 mm 4 m/s 726 mmHg 54%
08:00 +10°C° 0 mm 5 m/s 726 mmHg 52%
09:00 +10°C° 0 mm 5 m/s 726 mmHg 50%
10:00 +13°C° 0 mm 6 m/s 726 mmHg 48%
11:00 +14°C° 0 mm 7 m/s 726 mmHg 47%
12:00 +15°C° 0 mm 8 m/s 726 mmHg 45%
13:00 +15°C° 0 mm 8 m/s 725 mmHg 42%
14:00 +15°C° 0 mm 8 m/s 725 mmHg 39%
15:00 +15°C° 0 mm 8 m/s 725 mmHg 37%
16:00 +12°C° 0 mm 7 m/s 725 mmHg 39%
17:00 +12°C° 0 mm 5 m/s 725 mmHg 41%
18:00 +10°C° 0 mm 4 m/s 725 mmHg 44%
19:00 +9°C° 0 mm 3 m/s 726 mmHg 47%
20:00 +8°C° 0 mm 3 m/s 726 mmHg 49%
21:00 +7°C° 0 mm 2 m/s 726 mmHg 52%
22:00 +7°C° 0 mm 2 m/s 726 mmHg 53%
23:00 +6°C° 0 mm 2 m/s 726 mmHg 53%

3 Décembre, Jeudi

Heure Température Précipitation Vent Pression Humidité
00:00 +5°C° 0 mm 3 m/s 726 mmHg 54%
01:00 +5°C° 0 mm 2 m/s 726 mmHg 56%
02:00 +5°C° 0 mm 2 m/s 726 mmHg 58%
03:00 +4°C° 0 mm 2 m/s 726 mmHg 60%
04:00 +4°C° 0 mm 2 m/s 725 mmHg 61%
05:00 +4°C° 0 mm 2 m/s 725 mmHg 63%
06:00 +3°C° 0 mm 2 m/s 725 mmHg 64%
07:00 +4°C° 0 mm 2 m/s 725 mmHg 61%
08:00 +5°C° 0 mm 2 m/s 725 mmHg 57%
09:00 +6°C° 0 mm 2 m/s 725 mmHg 54%
10:00 +8°C° 0 mm 2 m/s 724 mmHg 48%
11:00 +9°C° 0 mm 3 m/s 724 mmHg 43%
12:00 +11°C° 0 mm 3 m/s 724 mmHg 37%
13:00 +12°C° 0 mm 3 m/s 723 mmHg 35%
14:00 +12°C° 0 mm 3 m/s 722 mmHg 32%
15:00 +14°C° 0 mm 2 m/s 722 mmHg 30%
16:00 +12°C° 0 mm 2 m/s 721 mmHg 38%
17:00 +9°C° 0 mm 2 m/s 721 mmHg 46%
18:00 +8°C° 0 mm 1 m/s 721 mmHg 53%
19:00 +8°C° 0 mm 1 m/s 721 mmHg 57%
20:00 +8°C° 0 mm 1 m/s 721 mmHg 61%
21:00 +8°C° 0 mm 1 m/s 720 mmHg 65%
22:00 +8°C° 0 mm 1 m/s 720 mmHg 63%
23:00 +8°C° 0 mm 1 m/s 720 mmHg 62%

4 Décembre, Vendredi

Heure Température Précipitation Vent Pression Humidité
00:00 +8°C° 0 mm 1 m/s 719 mmHg 61%
01:00 +7°C° 0 mm 1 m/s 719 mmHg 61%
02:00 +6°C° 0 mm 2 m/s 718 mmHg 61%
03:00 +6°C° 0 mm 2 m/s 718 mmHg 62%
04:00 +6°C° 0 mm 2 m/s 718 mmHg 64%
05:00 +5°C° 0 mm 3 m/s 718 mmHg 67%
06:00 +5°C° 0 mm 3 m/s 718 mmHg 70%
07:00 +6°C° 0 mm 5 m/s 718 mmHg 67%
08:00 +6°C° 0 mm 7 m/s 718 mmHg 64%
09:00 +7°C° 0 mm 9 m/s 718 mmHg 61%
10:00 +9°C° 0 mm 10 m/s 718 mmHg 56%
11:00 +11°C° 0 mm 10 m/s 718 mmHg 50%
12:00 +12°C° 0 mm 11 m/s 718 mmHg 44%
13:00 +12°C° 0.1 mm 10 m/s 717 mmHg 49%
14:00 +11°C° 0.1 mm 9 m/s 717 mmHg 55%
15:00 +10°C° 0.1 mm 9 m/s 716 mmHg 60%
16:00 +9°C° 0.1 mm 8 m/s 716 mmHg 63%
17:00 +8°C° 0.1 mm 7 m/s 717 mmHg 66%
18:00 +7°C° 0.1 mm 5 m/s 717 mmHg 68%
19:00 +7°C° 0.1 mm 6 m/s 717 mmHg 69%
20:00 +5°C° 0.1 mm 6 m/s 717 mmHg 70%
21:00 +5°C° 0.1 mm 7 m/s 717 mmHg 70%
22:00 +4°C° 0 mm 7 m/s 717 mmHg 69%
23:00 +4°C° 0 mm 8 m/s 717 mmHg 67%

5 Décembre, Samedi

Heure Température Précipitation Vent Pression Humidité
00:00 +2°C° 0 mm 9 m/s 717 mmHg 66%
01:00 +2°C° 0 mm 9 m/s 717 mmHg 66%
02:00 +2°C° 0 mm 9 m/s 718 mmHg 67%
03:00 +2°C° 0 mm 9 m/s 718 mmHg 68%
04:00 +1°C° 0 mm 10 m/s 718 mmHg 66%
05:00 +1°C° 0 mm 11 m/s 718 mmHg 65%
06:00 +1°C° 0 mm 11 m/s 719 mmHg 63%
07:00 +2°C° 0 mm 12 m/s 719 mmHg 60%
08:00 +1°C° 0 mm 13 m/s 720 mmHg 56%
09:00 +1°C° 0 mm 14 m/s 721 mmHg 53%
10:00 +4°C° 0 mm 14 m/s 721 mmHg 49%
11:00 +5°C° 0 mm 14 m/s 722 mmHg 45%
12:00 +6°C° 0 mm 14 m/s 722 mmHg 41%
13:00 +6°C° 0 mm 14 m/s 722 mmHg 40%
14:00 +7°C° 0 mm 13 m/s 722 mmHg 39%
15:00 +7°C° 0 mm 13 m/s 723 mmHg 39%
16:00 +5°C° 0 mm 12 m/s 723 mmHg 44%
17:00 +4°C° 0 mm 11 m/s 724 mmHg 50%
18:00 +3°C° 0 mm 10 m/s 724 mmHg 55%
19:00 +3°C° 0 mm 9 m/s 725 mmHg 57%
20:00 +4°C° 0 mm 8 m/s 725 mmHg 60%
21:00 +3°C° 0 mm 7 m/s 725 mmHg 62%
22:00 +3°C° 0 mm 7 m/s 725 mmHg 64%
23:00 +3°C° 0 mm 6 m/s 725 mmHg 66%
Voir plus

Nous avons besoin de votre consentement

Meteoprog et ses fournisseurs de services peuvent stocker et accéder à des données personnelles telles que des cookies, des identifiants d'appareils ou d'autres technologies similaires sur votre appareil et traiter ces données pour personnaliser le contenu et les publicités, ainsi que pour fournir des fonctionnalités de médias sociaux et analyser le trafic.

  • Stocker et/ou accéder à des informations sur votre appareil

    Des cookies, des identifiants d'appareils ou d'autres informations peuvent être stockés ou accessibles sur votre appareil aux fins indiquées ci-dessus.

  • Annonces et contenus personnalisés, mesure des annonces et des contenus, connaissance de l'audience et développement de produits

    Les annonces et le contenu peuvent être personnalisés en fonction d'un profil. D'autres données peuvent être ajoutées pour mieux personnaliser les annonces et le contenu. Les performances des publicités et du contenu peuvent être mesurées. Il est possible d'obtenir des informations sur le public qui a vu les publicités et le contenu. Ces données peuvent être utilisées pour développer ou améliorer l'expérience de l'utilisateur, les systèmes et les logiciels.

En cliquant sur "J'accepte", vous autorisez l'utilisation de cookies, des identifiants d'appareils, des balises web ou d'autres technologies similaires. Vos paramètres peuvent être modifiés dans le navigateur de votre appareil.

Dans certains cas, des intérêts légitimes peuvent être invoqués plutôt qu'un consentement. Vous pouvez en savoir plus à ce sujet dans notre Politique de confidentialité et de cookies.